Code,Year,DOY,HHMM,TIMESTAMP,wd,ws_min,ws,ws_max,Ta,RH,P,Rain,Hail
127239,2022,182,0000,2022-07-01 00:00:00,62,6.24,6.38,6.58,21.19,63.24,999,0,0
127240,2022,182,0005,2022-07-01 00:05:00,62.33,6.3,6.44,6.593,21.06,63.55,999,0,0
127241,2022,182,0010,2022-07-01 00:10:00,64.3,6.075,6.195,6.34,21,64.01,1000,0,0
127242,2022,182,0015,2022-07-01 00:15:00,68.55,5.785,5.935,6.1,20.98,64.61,1000,0,0
127243,2022,182,0020,2022-07-01 00:20:00,64.45,5.67,5.785,5.92,21,64.81,999,0,0
127244,2022,182,0025,2022-07-01 00:25:00,62.85,5.49,5.63,5.775,20.99,64.93,999,0,0
127245,2022,182,0030,2022-07-01 00:30:00,59.75,5.475,5.62,5.755,20.9,65.36,999,0,0
127246,2022,182,0035,2022-07-01 00:35:00,62.45,5.125,5.265,5.4,20.81,65.76,999,0,0
127247,2022,182,0040,2022-07-01 00:40:00,62.45,4.76,4.89,5.025,20.75,66.13,999,0,0
127248,2022,182,0045,2022-07-01 00:45:00,63.6,4.515,4.65,4.795,20.75,66.48,999,0,0
127249,2022,182,0050,2022-07-01 00:50:00,61.15,4.55,4.695,4.83,20.71,66.66,999,0,0
127250,2022,182,0055,2022-07-01 00:55:00,63.2,4.6,4.75,4.9,20.74,67,999,0,0
127251,2022,182,0100,2022-07-01 01:00:00,62.25,4.47,4.605,4.735,20.7,67.21,999,0,0
127252,2022,182,0105,2022-07-01 01:05:00,59,4.41,4.49,4.595,20.7,67.41,999,0,0
127253,2022,182,0110,2022-07-01 01:10:00,59.95,4.7,4.805,4.905,20.7,67.74,999,0,0
127254,2022,182,0115,2022-07-01 01:15:00,62.4,4.84,4.96,5.1,20.7,67.85,999,0,0
127255,2022,182,0120,2022-07-01 01:20:00,63.75,5.07,5.19,5.305,20.7,68.08,999,0,0
127256,2022,182,0125,2022-07-01 01:25:00,65.2,5.375,5.505,5.64,20.73,68.24,999,0,0
127257,2022,182,0130,2022-07-01 01:30:00,56.9,5.1,5.2,5.31,20.7,68.16,999,0,0
127258,2022,182,0135,2022-07-01 01:35:00,53.55,4.415,4.555,4.68,20.53,68.51,999,0,0
127259,2022,182,0140,2022-07-01 01:40:00,59.9,5.24,5.37,5.505,20.5,69.18,999,0,0
127260,2022,182,0145,2022-07-01 01:45:00,60.65,5.23,5.325,5.445,20.47,69.22,999,0,0
127261,2022,182,0150,2022-07-01 01:50:00,61.65,4.495,4.59,4.71,20.3,69.39,999,0,0
127262,2022,182,0155,2022-07-01 01:55:00,71.7,4.3,4.39,4.47,20.16,69.87,999,0,0
127263,2022,182,0200,2022-07-01 02:00:00,73.85,4.115,4.205,4.31,20.2,70.31,999,0,0
127264,2022,182,0205,2022-07-01 02:05:00,70.15,3.63,3.73,3.835,20.2,70.4,999,0,0
127265,2022,182,0210,2022-07-01 02:10:00,74.6,4.075,4.17,4.26,20.2,70.57,999,0,0
127266,2022,182,0215,2022-07-01 02:15:00,72.7,4.31,4.405,4.505,20.21,70.9,999,0,0
127267,2022,182,0220,2022-07-01 02:20:00,71.6,4.04,4.135,4.22,20.27,70.77,999,0,0
127268,2022,182,0225,2022-07-01 02:25:00,71,3.925,3.995,4.09,20.24,71.02,999,0,0
127269,2022,182,0230,2022-07-01 02:30:00,74.85,3.705,3.795,3.86,20.2,71.23,999,0,0
127270,2022,182,0235,2022-07-01 02:35:00,81.3,3.555,3.645,3.74,20.2,71.51,999,0,0
127271,2022,182,0240,2022-07-01 02:40:00,83.7,3.58,3.685,3.785,20.15,71.7,999,0,0
127272,2022,182,0245,2022-07-01 02:45:00,83.2,3.79,3.905,4.01,20.1,72.06,999,0,0
127273,2022,182,0250,2022-07-01 02:50:00,87,3.82,3.94,4.05,20.15,72.3,999,0,0
127274,2022,182,0255,2022-07-01 02:55:00,90.6,4.12,4.22,4.33,20.2,72.65,999,0,0
127275,2022,182,0300,2022-07-01 03:00:00,94.1,4.36,4.47,4.575,20.29,72.71,999,0,0
127276,2022,182,0305,2022-07-01 03:05:00,95.8,4.155,4.29,4.415,20.3,72.62,999,0,0
127277,2022,182,0310,2022-07-01 03:10:00,96,4.41,4.54,4.68,20.3,73.03,999,0,0
127278,2022,182,0315,2022-07-01 03:15:00,100,3.76,3.89,4.03,20.23,73.07,999,0,0
127279,2022,182,0320,2022-07-01 03:20:00,114.3,3.25,3.36,3.475,20.11,73.62,999,0,0
127280,2022,182,0325,2022-07-01 03:25:00,116.7,2.675,2.81,2.935,20.03,74.12,999,0,0
127281,2022,182,0330,2022-07-01 03:30:00,110.1,2.82,2.95,3.07,19.93,74.95,999,0,0
127282,2022,182,0335,2022-07-01 03:35:00,119,2.925,3.075,3.255,19.87,75.34,999,0,0
127283,2022,182,0340,2022-07-01 03:40:00,127.8,4.295,4.435,4.575,19.8,75.89,999,0,0
127284,2022,182,0345,2022-07-01 03:45:00,124.7,4.365,4.52,4.695,19.8,75.97,999,0,0
127285,2022,182,0350,2022-07-01 03:50:00,116.9,4.125,4.305,4.48,19.77,76.1,999,0,0
127286,2022,182,0355,2022-07-01 03:55:00,118.3,4.435,4.655,4.9,19.67,76.27,999,0,0
127287,2022,182,0400,2022-07-01 04:00:00,127.3,4.305,4.455,4.63,19.55,76.53,999,0,0
127288,2022,182,0405,2022-07-01 04:05:00,127.9,3.99,4.205,4.385,19.43,76.83,999,0,0
127289,2022,182,0410,2022-07-01 04:10:00,128.5,3.74,3.91,4.09,19.33,77.05,999,0,0
127290,2022,182,0415,2022-07-01 04:15:00,135.4,3.285,3.525,3.755,19.25,77.36,999,0,0
127291,2022,182,0420,2022-07-01 04:20:00,140.6,3.68,3.875,4.075,19.2,77.55,999,0,0
127292,2022,182,0425,2022-07-01 04:25:00,138.9,4.32,4.49,4.66,19.11,77.71,999,0,0
127293,2022,182,0430,2022-07-01 04:30:00,137.9,3.98,4.26,4.51,19.1,77.94,999,0,0
127294,2022,182,0435,2022-07-01 04:35:00,141.7,3.93,4.17,4.415,19.05,78.24,999,0,0
127295,2022,182,0440,2022-07-01 04:40:00,149.3,3.85,4.145,4.41,19,78.37,999,0,0
127296,2022,182,0445,2022-07-01 04:45:00,152.4,3.85,4.25,4.625,19,78.34,999,0,0
127297,2022,182,0450,2022-07-01 04:50:00,162.6,3.915,4.325,4.805,19,78.33,999,0,0
127298,2022,182,0455,2022-07-01 04:55:00,165.7,4.14,4.515,4.91,19,78.65,999,0,0
127299,2022,182,0500,2022-07-01 05:00:00,162.3,3.775,4.125,4.485,19,79.24,999,0,0
127300,2022,182,0505,2022-07-01 05:05:00,159,3.285,3.66,4.025,19,79.94,999,0,0
127301,2022,182,0510,2022-07-01 05:10:00,158.3,3.54,3.905,4.225,18.99,80.7,999,0,0
127302,2022,182,0515,2022-07-01 05:15:00,147.6,2.945,3.335,3.705,18.95,81,999,0,0
127303,2022,182,0520,2022-07-01 05:20:00,155.1,3.2,3.55,3.86,19,81.3,999,0,0
127304,2022,182,0525,2022-07-01 05:25:00,153.7,3.58,3.86,4.11,19,81.7,999,0,0
127305,2022,182,0530,2022-07-01 05:30:00,164.8,2.215,2.465,2.7,19.03,81.6,999,0,0
127306,2022,182,0535,2022-07-01 05:35:00,154.6,2.225,2.53,2.825,19.1,81.8,999,0,0
127307,2022,182,0540,2022-07-01 05:40:00,156.7,3.415,3.7,3.995,19.19,81.9,999,0,0
127308,2022,182,0545,2022-07-01 05:45:00,162,2.87,3.245,3.63,19.21,82.1,999,0,0
127309,2022,182,0550,2022-07-01 05:50:00,172.1,3.82,4.075,4.325,19.3,81.8,999,0,0
127310,2022,182,0555,2022-07-01 05:55:00,169.7,3.995,4.415,4.81,19.39,81.4,999,0,0
127311,2022,182,0600,2022-07-01 06:00:00,177.7,4.675,4.935,5.21,19.4,81.2,999,0,0
127312,2022,182,0605,2022-07-01 06:05:00,185.9,3.49,3.84,4.195,19.47,80.9,999,0,0
127313,2022,182,0610,2022-07-01 06:10:00,185.5,4.29,4.555,4.8,19.51,80.6,999,0,0
127314,2022,182,0615,2022-07-01 06:15:00,184.9,5.01,5.26,5.505,19.6,81.1,999,0,0
127315,2022,182,0620,2022-07-01 06:20:00,191.7,5.185,5.445,5.685,19.6,82,999,0,0
127316,2022,182,0625,2022-07-01 06:25:00,185.9,5.63,5.84,6.05,19.58,82.1,999,0,0
127317,2022,182,0630,2022-07-01 06:30:00,185.2,4.81,5,5.215,19.57,82.8,999,0,0
127318,2022,182,0635,2022-07-01 06:35:00,175.1,4.15,4.435,4.72,19.6,82.9,999,0,0
127319,2022,182,0640,2022-07-01 06:40:00,181.9,4.66,4.885,5.1,19.63,81.8,999,0,0
127320,2022,182,0645,2022-07-01 06:45:00,187,3.77,4.06,4.31,19.75,81.6,999,0,0
127321,2022,182,0650,2022-07-01 06:50:00,182.6,3.945,4.225,4.53,19.77,79.96,999,0,0
127322,2022,182,0655,2022-07-01 06:55:00,180.2,7.165,7.395,7.625,19.74,78.83,999,0,0
127323,2022,182,0700,2022-07-01 07:00:00,189,7.205,7.395,7.605,19.61,77.39,999,0,0
127324,2022,182,0705,2022-07-01 07:05:00,181.7,7.195,7.37,7.565,19.62,75.44,999,0,0
127325,2022,182,0710,2022-07-01 07:10:00,183.9,6.08,6.325,6.565,19.71,75.32,999,0,0
127326,2022,182,0715,2022-07-01 07:15:00,196.3,5.295,5.52,5.76,19.8,73.91,999,0,0
127327,2022,182,0720,2022-07-01 07:20:00,190.5,6.215,6.39,6.575,19.84,72.43,999,0,0
127328,2022,182,0725,2022-07-01 07:25:00,192.5,6.22,6.42,6.63,19.82,71.14,999,0,0
127329,2022,182,0730,2022-07-01 07:30:00,195.2,5.455,5.685,5.895,19.91,70.15,999,0,0
127330,2022,182,0735,2022-07-01 07:35:00,200.2,5.95,6.16,6.38,19.97,68.66,999,0,0
127331,2022,182,0740,2022-07-01 07:40:00,198.3,6.45,6.625,6.81,20,69.81,999,0,0
127332,2022,182,0745,2022-07-01 07:45:00,197.5,4.52,4.835,5.105,19.99,70.07,999,0,0
127333,2022,182,0750,2022-07-01 07:50:00,194.5,4.63,4.93,5.235,20.1,70.76,999,0,0
127334,2022,182,0755,2022-07-01 07:55:00,194.4,5.115,5.395,5.645,20.03,70.86,999,0,0
127335,2022,182,0800,2022-07-01 08:00:00,197.4,4.41,4.63,4.865,20.05,69.54,999,0,0
127336,2022,182,0805,2022-07-01 08:05:00,193.6,4.755,4.98,5.2,20.19,68.88,999,0,0
127337,2022,182,0810,2022-07-01 08:10:00,194.9,5.64,5.79,5.945,20.19,66.44,999,0,0
127338,2022,182,0815,2022-07-01 08:15:00,195.6,5.44,5.615,5.79,20.25,66.99,999,0,0
127339,2022,182,0820,2022-07-01 08:20:00,193.6,5.525,5.67,5.84,20.27,66.37,999,0,0
127340,2022,182,0825,2022-07-01 08:25:00,192,4.58,4.78,4.985,20.35,67.06,999,0,0
127341,2022,182,0830,2022-07-01 08:30:00,205.4,4.435,4.68,4.945,20.47,67.19,999,0,0
127342,2022,182,0835,2022-07-01 08:35:00,201.3,4.815,4.96,5.13,20.43,66.22,999,0,0
127343,2022,182,0840,2022-07-01 08:40:00,198.1,4.14,4.355,4.555,20.47,66.83,999,0,0
127344,2022,182,0845,2022-07-01 08:45:00,192.4,4.795,5.02,5.23,20.49,67.92,999,0,0
127345,2022,182,0850,2022-07-01 08:50:00,190.2,4.46,4.8,5.115,20.44,68.02,999,0,0
127346,2022,182,0855,2022-07-01 08:55:00,203.6,4.65,4.91,5.185,20.47,67.84,999,0,0
127347,2022,182,0900,2022-07-01 09:00:00,205.2,5.545,5.74,5.945,20.36,68.24,999,0,0
127348,2022,182,0905,2022-07-01 09:05:00,206.4,5.115,5.33,5.55,20.34,67.56,999,0,0
127349,2022,182,0910,2022-07-01 09:10:00,202.9,4.265,4.465,4.69,20.49,65.73,999,0,0
127350,2022,182,0915,2022-07-01 09:15:00,207.1,4.36,4.545,4.76,20.6,66.12,999,0,0
127351,2022,182,0920,2022-07-01 09:20:00,206.1,4.685,4.845,5.02,20.65,66.32,999,0,0
127352,2022,182,0925,2022-07-01 09:25:00,202.7,4.4,4.535,4.685,20.77,67.34,999,0,0
127353,2022,182,0930,2022-07-01 09:30:00,206.1,4.26,4.49,4.685,20.8,69.39,999,0,0
127354,2022,182,0935,2022-07-01 09:35:00,209.7,4.555,4.755,4.955,20.8,69.86,999,0,0
127355,2022,182,0940,2022-07-01 09:40:00,211.1,5.215,5.375,5.535,20.78,66.9,999,0,0
127356,2022,182,0945,2022-07-01 09:45:00,209.7,5.435,5.635,5.795,20.81,62.23,999,0,0
127357,2022,182,0950,2022-07-01 09:50:00,205.6,6.12,6.32,6.515,20.89,63.52,999,0,0
127358,2022,182,0955,2022-07-01 09:55:00,202,5.305,5.565,5.79,20.8,63.2,999,0,0
127359,2022,182,1000,2022-07-01 10:00:00,205.1,5.065,5.29,5.52,20.75,65.6,999,0,0
127360,2022,182,1005,2022-07-01 10:05:00,212.6,4.81,4.99,5.155,20.64,65.73,999,0,0
127361,2022,182,1010,2022-07-01 10:10:00,217.7,5.005,5.19,5.38,20.7,67.37,1000,0,0
127362,2022,182,1015,2022-07-01 10:15:00,222.1,5.06,5.25,5.405,20.67,67.28,1000,0,0
127363,2022,182,1020,2022-07-01 10:20:00,215.7,5.66,5.82,5.98,20.61,64.08,1000,0,0
127364,2022,182,1025,2022-07-01 10:25:00,222,4.615,4.87,5.135,20.72,66.57,1000,0,0
127365,2022,182,1030,2022-07-01 10:30:00,223.9,4.765,4.955,5.13,20.66,69.65,1000,0,0
127366,2022,182,1035,2022-07-01 10:35:00,226.3,6.1,6.36,6.66,20.44,69.9,1000,0,0
127367,2022,182,1040,2022-07-01 10:40:00,224.8,6.295,6.515,6.735,20.21,70.33,1000,0,0
127368,2022,182,1045,2022-07-01 10:45:00,218.8,5.755,6.13,6.525,20.2,73.07,1000,0,0
127369,2022,182,1050,2022-07-01 10:50:00,223.4,5.72,5.99,6.275,20.16,74.37,1000,0,0
127370,2022,182,1055,2022-07-01 10:55:00,221.9,5.82,6.055,6.26,20,74.15,1000,0,0
127371,2022,182,1100,2022-07-01 11:00:00,223.8,5.12,5.375,5.585,19.94,72.96,1000,0,0
127372,2022,182,1105,2022-07-01 11:05:00,226.8,5.44,5.71,5.94,20.05,71.82,1000,0,0
127373,2022,182,1110,2022-07-01 11:10:00,222.1,5.6,5.85,6.065,20.17,71.86,1000,0,0
127374,2022,182,1115,2022-07-01 11:15:00,230.8,5.165,5.435,5.695,20.22,71.82,1000,0,0
127375,2022,182,1120,2022-07-01 11:20:00,217.1,5.04,5.275,5.495,20.2,70.5,1000,0,0
127376,2022,182,1125,2022-07-01 11:25:00,219.1,5.17,5.355,5.535,20.36,69.19,1000,0,0
127377,2022,182,1130,2022-07-01 11:30:00,216.3,4.16,4.415,4.67,20.59,68.05,1000,0,0
127378,2022,182,1135,2022-07-01 11:35:00,215.7,4.865,5.09,5.32,20.75,67,1000,0,0
127379,2022,182,1140,2022-07-01 11:40:00,217,4.635,4.895,5.16,20.8,67.02,1000,0,0
127380,2022,182,1145,2022-07-01 11:45:00,206.6,4.415,4.67,4.985,20.85,66.6,1000,0,0
127381,2022,182,1150,2022-07-01 11:50:00,206.6,5.235,5.45,5.705,20.88,64.24,1000,0,0
127382,2022,182,1155,2022-07-01 11:55:00,210.7,3.89,4.185,4.465,20.99,66.45,1000,0,0
127383,2022,182,1200,2022-07-01 12:00:00,205.2,4.645,4.88,5.115,21,65.66,1000,0,0
127384,2022,182,1205,2022-07-01 12:05:00,205,4.255,4.53,4.795,21.05,66.27,999,0,0
127385,2022,182,1210,2022-07-01 12:10:00,201.7,5,5.205,5.435,21.1,65.16,999,0,0
127386,2022,182,1215,2022-07-01 12:15:00,199.5,4.95,5.145,5.36,21.2,64.94,999,0,0
127387,2022,182,1220,2022-07-01 12:20:00,214.7,5,5.215,5.395,21.3,64.88,999,0,0
127388,2022,182,1225,2022-07-01 12:25:00,210.6,5.665,5.805,5.95,21.39,64.8,999,0,0
127389,2022,182,1230,2022-07-01 12:30:00,205.9,5.355,5.55,5.775,21.5,63.75,999,0,0
127390,2022,182,1235,2022-07-01 12:35:00,203.5,5.49,5.76,6.03,21.63,63.59,999,0,0
127391,2022,182,1240,2022-07-01 12:40:00,211.6,5.945,6.185,6.405,21.57,64.45,999,0,0
127392,2022,182,1245,2022-07-01 12:45:00,207.9,7.205,7.385,7.595,21.23,63.24,999,0,0
127393,2022,182,1250,2022-07-01 12:50:00,206.2,7.37,7.565,7.785,20.99,62.53,999,0,0
127394,2022,182,1255,2022-07-01 12:55:00,202.8,6.84,7,7.19,21.07,63.34,999,0,0
127395,2022,182,1300,2022-07-01 13:00:00,208.6,6.97,7.135,7.31,21.13,61.77,999,0,0
127396,2022,182,1305,2022-07-01 13:05:00,212.6,6.695,6.855,7.06,21.15,62,999,0,0
127397,2022,182,1310,2022-07-01 13:10:00,210.4,7.36,7.545,7.755,20.93,64.67,999,0,0
127398,2022,182,1315,2022-07-01 13:15:00,209.9,7.62,7.89,8.15,20.65,68.16,999,0,0
127399,2022,182,1320,2022-07-01 13:20:00,208.7,7.265,7.45,7.665,20.55,70.34,999,0,0
127400,2022,182,1325,2022-07-01 13:25:00,210.3,6.955,7.165,7.35,20.55,71.81,999,0,0
127401,2022,182,1330,2022-07-01 13:30:00,209.1,7.76,8.02,8.26,20.47,73.4,999,0,0
127402,2022,182,1335,2022-07-01 13:35:00,205.6,7.13,7.5,7.855,20.38,75.76,999,0,0
127403,2022,182,1340,2022-07-01 13:40:00,202.6,6.345,6.75,7.155,20.29,76.32,999,0,0
127404,2022,182,1345,2022-07-01 13:45:00,211.9,6.995,7.38,7.825,20.31,78.13,999,0,0
127405,2022,182,1350,2022-07-01 13:50:00,212,7.18,7.46,7.74,20.07,80,1000,0,0
127406,2022,182,1355,2022-07-01 13:55:00,211.9,7.355,7.645,7.905,19.91,81,999,0,0
127407,2022,182,1400,2022-07-01 14:00:00,203.4,6.105,6.51,6.89,19.77,81.2,1000,0,0
127408,2022,182,1405,2022-07-01 14:05:00,201.1,7.65,7.865,8.07,19.83,79.8,1000,0,0
127409,2022,182,1410,2022-07-01 14:10:00,200.2,6.365,6.555,6.73,19.84,80.7,1000,0,0
127410,2022,182,1415,2022-07-01 14:15:00,198.9,6.415,6.645,6.885,19.8,81.4,1000,0,0
127411,2022,182,1420,2022-07-01 14:20:00,205.8,6.02,6.365,6.705,19.71,81.9,1000,0,0
127412,2022,182,1425,2022-07-01 14:25:00,203,5.105,5.475,5.84,19.67,81.8,999,0,0
127413,2022,182,1430,2022-07-01 14:30:00,204.5,3.86,4.18,4.505,19.68,81.1,1000,0,0
127414,2022,182,1435,2022-07-01 14:35:00,200.5,4.66,4.86,5.07,19.81,79.64,999,0,0
127415,2022,182,1440,2022-07-01 14:40:00,199.2,5.215,5.425,5.665,19.9,78.7,999,0,0
127416,2022,182,1445,2022-07-01 14:45:00,207.6,5.78,5.98,6.19,19.87,78.03,999,0,0
127417,2022,182,1450,2022-07-01 14:50:00,206.2,6.18,6.385,6.585,19.82,78.41,999,0,0
127418,2022,182,1455,2022-07-01 14:55:00,209.3,5.065,5.35,5.63,19.83,78.79,999,0,0
127419,2022,182,1500,2022-07-01 15:00:00,213.3,5.97,6.16,6.335,19.9,79.27,999,0,0
127420,2022,182,1505,2022-07-01 15:05:00,208,6.575,6.8,7.02,19.81,79.79,999,0,0
127421,2022,182,1510,2022-07-01 15:10:00,207.1,6.285,6.465,6.66,19.8,80,999,0,0
127422,2022,182,1515,2022-07-01 15:15:00,211.4,5.85,6.01,6.18,19.8,80.4,999,0,0
127423,2022,182,1520,2022-07-01 15:20:00,213.5,5.255,5.445,5.595,19.88,80.3,999,0,0
127424,2022,182,1525,2022-07-01 15:25:00,207.3,5.24,5.51,5.755,20,79.84,999,0,0
127425,2022,182,1530,2022-07-01 15:30:00,202.9,4.225,4.445,4.675,20.09,79.68,999,0,0
127426,2022,182,1535,2022-07-01 15:35:00,204.4,4.425,4.74,5.035,20.11,78.97,999,0,0
127427,2022,182,1540,2022-07-01 15:40:00,207.8,4.17,4.37,4.58,20.26,79.56,999,0,0
127428,2022,182,1545,2022-07-01 15:45:00,196.7,4.435,4.68,4.885,20.22,79.52,999,0,0
127429,2022,182,1550,2022-07-01 15:50:00,198.7,4.015,4.305,4.55,20.25,79.41,999,0,0
127430,2022,182,1555,2022-07-01 15:55:00,205.1,3.415,3.735,4.035,20.3,79.25,999,0,0
127431,2022,182,1600,2022-07-01 16:00:00,199.3,4.035,4.205,4.4,20.3,78.86,999,0,0
127432,2022,182,1605,2022-07-01 16:05:00,198.7,4.125,4.3,4.465,20.3,79.1,999,0,0
127433,2022,182,1610,2022-07-01 16:10:00,205.5,4.1,4.34,4.555,20.34,79.09,999,0,0
127434,2022,182,1615,2022-07-01 16:15:00,210.2,4.52,4.735,4.965,20.3,78.98,1000,0,0
127435,2022,182,1620,2022-07-01 16:20:00,216.4,4.275,4.46,4.62,20.3,78.93,1000,0,0
127436,2022,182,1625,2022-07-01 16:25:00,219,4.29,4.48,4.65,20.3,79.1,1000,0,0
127437,2022,182,1630,2022-07-01 16:30:00,217.9,4.98,5.165,5.36,20.3,79.04,1000,0,0
127438,2022,182,1635,2022-07-01 16:35:00,217.1,5.115,5.29,5.475,20.27,79.69,1000,0,0
127439,2022,182,1640,2022-07-01 16:40:00,216.7,6.61,6.78,6.96,20.09,80.5,1000,0,0
127440,2022,182,1645,2022-07-01 16:45:00,215.7,6.55,6.705,6.915,19.9,81.2,1000,0,0
127441,2022,182,1650,2022-07-01 16:50:00,219,6.015,6.195,6.41,19.86,82.4,1000,0,0
127442,2022,182,1655,2022-07-01 16:55:00,215.7,6.265,6.465,6.68,19.8,83.2,1000,0,0
127443,2022,182,1700,2022-07-01 17:00:00,216.3,6.105,6.37,6.635,19.7,84,1000,0,0
127444,2022,182,1705,2022-07-01 17:05:00,213.2,6.65,6.885,7.14,19.65,84.7,1000,0,0
127445,2022,182,1710,2022-07-01 17:10:00,208.3,6.565,6.79,7.035,19.53,85.4,1000,0,0
127446,2022,182,1715,2022-07-01 17:15:00,210.3,6.175,6.465,6.765,19.41,86.1,1000,0,0
127447,2022,182,1720,2022-07-01 17:20:00,208.8,5.325,5.565,5.79,19.4,86.6,1000,0,0
127448,2022,182,1725,2022-07-01 17:25:00,203.9,6.53,6.685,6.845,19.4,86.7,1000,0,0
127449,2022,182,1730,2022-07-01 17:30:00,205.7,6.51,6.7,6.87,19.4,87.2,1000,0,0
127450,2022,182,1735,2022-07-01 17:35:00,204.7,5.98,6.14,6.285,19.4,87.6,1000,0,0
127451,2022,182,1740,2022-07-01 17:40:00,211.5,5.6,5.785,5.94,19.39,87.6,1000,0,0
127452,2022,182,1745,2022-07-01 17:45:00,209.7,5.965,6.145,6.34,19.3,87.5,1000,0,0
127453,2022,182,1750,2022-07-01 17:50:00,211.6,4.695,4.92,5.12,19.37,87.6,1000,0,0
127454,2022,182,1755,2022-07-01 17:55:00,209.3,5.365,5.5,5.685,19.41,87.5,1000,0,0
127455,2022,182,1800,2022-07-01 18:00:00,222.1,5.04,5.335,5.69,19.5,87,1000,0,0
127456,2022,182,1805,2022-07-01 18:05:00,223.1,6.7,6.905,7.115,19.5,86.4,1000,0,0
127457,2022,182,1810,2022-07-01 18:10:00,217.6,6.085,6.26,6.425,19.55,86.4,1000,0,0
127458,2022,182,1815,2022-07-01 18:15:00,210.1,6.485,6.675,6.85,19.57,86.9,1000,0,0
127459,2022,182,1820,2022-07-01 18:20:00,212,5.595,5.795,5.99,19.5,87.5,1000,0,0
127460,2022,182,1825,2022-07-01 18:25:00,214.6,5.37,5.65,5.895,19.5,87.7,1000,0,0
127461,2022,182,1830,2022-07-01 18:30:00,209.7,6.2,6.36,6.51,19.5,87.9,1000,0,0
127462,2022,182,1835,2022-07-01 18:35:00,210.2,6.25,6.475,6.725,19.5,88.2,1000,0,0
127463,2022,182,1840,2022-07-01 18:40:00,209.4,5.175,5.44,5.665,19.5,88.4,1000,0,0
127464,2022,182,1845,2022-07-01 18:45:00,211.4,6.305,6.51,6.725,19.5,88.5,1000,0,0
127465,2022,182,1850,2022-07-01 18:50:00,218.5,6.08,6.27,6.455,19.49,88.8,1000,0,0
127466,2022,182,1855,2022-07-01 18:55:00,222.4,6.6,6.87,7.12,19.4,88.8,1000,0,0
127467,2022,182,1900,2022-07-01 19:00:00,282.2,7.5,7.885,8.21,18.87,85.6,1000,0,0
127468,2022,182,1905,2022-07-01 19:05:00,291.9,8.75,9.12,9.52,18.24,85.7,1000,0,0
127469,2022,182,1910,2022-07-01 19:10:00,291.6,8.33,8.66,9,17.78,85.8,1000,0,0
127470,2022,182,1915,2022-07-01 19:15:00,299.7,8.16,8.59,9.02,17.58,86,1000,0,0
127471,2022,182,1920,2022-07-01 19:20:00,294.9,6.98,7.335,7.69,17.59,86.3,1000,0,0
127472,2022,182,1925,2022-07-01 19:25:00,290.4,6.935,7.4,7.85,17.51,86,1000,0,0
127473,2022,182,1930,2022-07-01 19:30:00,289.7,8.47,8.82,9.15,17.39,84.8,1000,0,0
127474,2022,182,1935,2022-07-01 19:35:00,298.5,6.425,6.915,7.405,17.4,85,1000,0,0
127475,2022,182,1940,2022-07-01 19:40:00,293.9,5.05,5.45,5.865,17.41,85,1000,0,0
127476,2022,182,1945,2022-07-01 19:45:00,288.5,5.065,5.42,5.815,17.5,84.6,1000,0,0
127477,2022,182,1950,2022-07-01 19:50:00,287.2,6.815,7.165,7.495,17.43,83.6,1001,0,0
127478,2022,182,1955,2022-07-01 19:55:00,285.2,7.9,8.14,8.41,17.4,82.8,1001,0,0
127479,2022,182,2000,2022-07-01 20:00:00,282.9,6.455,6.705,6.975,17.41,82.8,1001,0,0
127480,2022,182,2005,2022-07-01 20:05:00,290.4,5.28,5.78,6.225,17.41,82.3,1001,0,0
127481,2022,182,2010,2022-07-01 20:10:00,282.5,6.18,6.575,6.895,17.42,81.9,1001,0,0
127482,2022,182,2015,2022-07-01 20:15:00,285.8,7.375,7.605,7.82,17.4,81.6,1001,0,0
127483,2022,182,2020,2022-07-01 20:20:00,288.1,8.11,8.32,8.54,17.35,81.8,1001,0,0
127484,2022,182,2025,2022-07-01 20:25:00,288,9.55,9.79,10.04,17.22,81.5,1001,0,0
127485,2022,182,2030,2022-07-01 20:30:00,287.1,9.46,9.81,10.17,17.14,81.1,1001,0,0
127486,2022,182,2035,2022-07-01 20:35:00,286.3,7.855,8.41,8.89,17.1,82,1001,0,0
127487,2022,182,2040,2022-07-01 20:40:00,281.7,7.345,7.585,7.825,17.01,82.7,1001,0,0
127488,2022,182,2045,2022-07-01 20:45:00,293.1,6.145,6.66,7.095,16.96,84,1001,0.115,0
127489,2022,182,2050,2022-07-01 20:50:00,289.3,9.36,9.75,10.16,16.69,83.4,1001,5.505,0
127490,2022,182,2055,2022-07-01 20:55:00,291.4,8.79,9.21,9.66,16.49,84.6,1001,5.94,0
127491,2022,182,2100,2022-07-01 21:00:00,282.4,7.32,7.69,8.04,16.37,86,1001,1.615,0
127492,2022,182,2105,2022-07-01 21:05:00,282.1,8.07,8.35,8.62,16.14,86.6,1001,0.04,0
127493,2022,182,2110,2022-07-01 21:10:00,289.6,7.695,8.01,8.37,16.1,87.3,1001,0,0
127494,2022,182,2115,2022-07-01 21:15:00,286.9,7.865,8.34,8.81,16.07,87.5,1001,0.15,0
127495,2022,182,2120,2022-07-01 21:20:00,290,8.64,9.02,9.39,16.02,87.3,1001,0.06,0
127496,2022,182,2125,2022-07-01 21:25:00,292.1,8.66,9.05,9.45,16,87.4,1001,0.235,0
127497,2022,182,2130,2022-07-01 21:30:00,293,6.54,6.93,7.345,15.99,88.2,1001,0,0
127498,2022,182,2135,2022-07-01 21:35:00,297.7,5.785,6.09,6.405,15.9,88.4,1001,0,0
127499,2022,182,2140,2022-07-01 21:40:00,299,5.22,5.595,6.03,15.81,88.6,1001,0,0
127500,2022,182,2145,2022-07-01 21:45:00,289.4,4.93,5.175,5.455,15.8,88.7,1001,0,0
127501,2022,182,2150,2022-07-01 21:50:00,279.1,6.65,6.93,7.21,15.77,88.3,1001,0,0
127502,2022,182,2155,2022-07-01 21:55:00,281,6.72,7.07,7.405,15.7,88,1001,0,0
127503,2022,182,2200,2022-07-01 22:00:00,289.4,8.41,8.75,9.05,15.7,87.4,1001,0,0
127504,2022,182,2205,2022-07-01 22:05:00,285.6,8.38,8.69,9,15.7,87,1001,0,0
127505,2022,182,2210,2022-07-01 22:10:00,283.2,7.19,7.47,7.75,15.73,87.1,1001,0,0
127506,2022,182,2215,2022-07-01 22:15:00,283.7,7.03,7.41,7.755,15.8,87,1001,0,0
127507,2022,182,2220,2022-07-01 22:20:00,284.8,6.985,7.335,7.67,15.8,87,1001,0,0
127508,2022,182,2225,2022-07-01 22:25:00,282.5,6.285,6.64,7.075,15.87,87.5,1001,0,0
127509,2022,182,2230,2022-07-01 22:30:00,278,7.77,8.09,8.45,15.85,87.2,1001,0,0
127510,2022,182,2235,2022-07-01 22:35:00,279,8.09,8.44,8.77,15.77,87.1,1001,0,0
127511,2022,182,2240,2022-07-01 22:40:00,283.8,7.95,8.39,8.77,15.62,86.7,1001,0,0
127512,2022,182,2245,2022-07-01 22:45:00,282.4,8.29,8.68,9.13,15.39,84.9,1001,0,0
127513,2022,182,2250,2022-07-01 22:50:00,286.4,8.5,8.88,9.22,15.5,84.3,1001,0,0
127514,2022,182,2255,2022-07-01 22:55:00,285.2,7.24,7.515,7.79,15.61,85.1,1002,0,0
127515,2022,182,2300,2022-07-01 23:00:00,279.2,5.59,5.95,6.34,15.7,86.2,1002,0,0
127516,2022,182,2305,2022-07-01 23:05:00,269,6.185,6.95,7.66,15.69,86.5,1002,0,0
127517,2022,182,2310,2022-07-01 23:10:00,272.3,9.59,9.88,10.14,15.43,85.7,1002,0,0
127518,2022,182,2315,2022-07-01 23:15:00,270.5,8.53,8.92,9.25,15.23,86.1,1002,0.615,0
127519,2022,182,2320,2022-07-01 23:20:00,275.9,9.52,9.87,10.16,14.96,85.4,1002,0.69,0
127520,2022,182,2325,2022-07-01 23:25:00,275.6,8.95,9.26,9.57,14.85,84.8,1002,0.735,0
127521,2022,182,2330,2022-07-01 23:30:00,279.7,7.7,8.21,8.68,15.02,85.3,1002,0,0
127522,2022,182,2335,2022-07-01 23:35:00,281.8,7.935,8.43,8.91,15.07,86.4,1002,0,0
127523,2022,182,2340,2022-07-01 23:40:00,287.6,9,9.31,9.58,14.82,86.5,1002,0,0
127524,2022,182,2345,2022-07-01 23:45:00,291.8,7.935,8.45,8.94,14.6,87.2,1002,0.02,0
127525,2022,182,2350,2022-07-01 23:50:00,288.4,8.37,8.87,9.38,14.42,87.4,1002,0.025,0